This is the latest recevied weather packets stored in our database for station/object N7CEE-2. If no packets are shown the sender has not sent any weather packets the latest 10 day(s).
| Time | Temp. | Humidity | Pressure | Rain* | Wind** | Luminosity | Snow |
|---|---|---|---|---|---|---|---|
| 1777769991 | 31.67° C | 20% | 1012.5 hPa | 0 mm | - | 119 W/m² | - |
| 1777769688 | 31.67° C | 19% | 1012.4 hPa | 0 mm | - | 117 W/m² | - |
| 1777769385 | 31.67° C | 20% | 1012.4 hPa | 0 mm | - | 122 W/m² | - |
| 1777769081 | 31.67° C | 20% | 1012.5 hPa | 0 mm | - | 140 W/m² | - |
| 1777768779 | 31.67° C | 20% | 1012.4 hPa | 0 mm | - | 150 W/m² | - |
| 1777768476 | 31.67° C | 20% | 1012.5 hPa | 0 mm | - | 136 W/m² | - |
| 1777768173 | 31.67° C | 19% | 1012.5 hPa | 0 mm | - | 135 W/m² | - |
| 1777767870 | 31.67° C | 20% | 1012.5 hPa | 0 mm | - | 158 W/m² | - |
| 1777767566 | 31.67° C | 20% | 1012.4 hPa | 0 mm | - | 209 W/m² | - |
| 1777767263 | 32.22° C | 20% | 1012.6 hPa | 0 mm | - | 224 W/m² | - |
| 1777766961 | 32.78° C | 20% | 1012.4 hPa | 0 mm | - | 277 W/m² | - |
| 1777766657 | 32.78° C | 19% | 1012.5 hPa | 0 mm | - | 278 W/m² | - |
| 1777766355 | 32.22° C | 20% | 1012.5 hPa | 0 mm | - | 261 W/m² | - |
| 1777766051 | 31.67° C | 20% | 1012.5 hPa | 0 mm | - | 244 W/m² | - |
| 1777765749 | 31.67° C | 20% | 1012.6 hPa | 0 mm | - | 205 W/m² | - |
| 1777765445 | 32.22° C | 20% | 1012.6 hPa | 0 mm | - | 233 W/m² | - |
| 1777765143 | 32.22° C | 20% | 1012.5 hPa | 0 mm | - | 287 W/m² | - |
| 1777764838 | 32.78° C | 20% | 1012.6 hPa | 0 mm | - | 305 W/m² | - |
| 1777764535 | 32.22° C | 20% | 1012.5 hPa | 0 mm | - | 477 W/m² | - |
| 1777764231 | 32.22° C | 20% | 1012.8 hPa | 0 mm | - | 216 W/m² | - |
| 1777763928 | 32.22° C | 20% | 1012.8 hPa | 0 mm | - | 266 W/m² | - |
| 1777763626 | 32.22° C | 21% | 1012.7 hPa | 0 mm | - | 260 W/m² | - |
| 1777763324 | 32.78° C | 20% | 1012.5 hPa | 0 mm | - | 154 W/m² | - |
| 1777763022 | 32.22° C | 20% | 1012.9 hPa | 0 mm | - | 523 W/m² | - |
| 1777762718 | 32.22° C | 21% | 1012.6 hPa | 0 mm | - | 546 W/m² | - |
* Rain latest hour (hover to see other rain measurements)
** Current wind speed in m/s (hover to see current wind gust speed)